Location: Dos Palmas
(32.4468°N, 116.8732°W)
Time: 23:41:20
(UTC+00:00)

Meteor 1-24 Rocket - Pass Details

Date: 20 June 2021
Orbit: 791 x 927 km, 81.3° (Epoch: 01 August)

Event Time Altitude Azimuth Distance (km) Brightness Sun altitude
Exits shadow 05:32:08 64° 94° (E) 886 3.5 -25.3°
Drops below altitude 10° 05:37:28 10° 15° (NNE) 2,411 6.6 -25.9°
Sets 05:39:55 0° 12° (NNE) 3,365 7.5 -26.2°
